Weather History for KRWV - January, 2014

Change the Weather History Date:

Saturday, January 4, 2014

  Actual Average (KCLL) Record (KCLL)
Temperature  
Mean Temperature 52 °F 51 °F  
Max Temperature 66 °F 60 °F 82 °F (1997)
Min Temperature 39 °F 41 °F 15 °F (1911)
Degree Days  
Heating Degree Days 12 15  
Month to date heating degree days 60  
Since 1 July heating degree days 696  
Cooling Degree Days 0 0  
Month to date cooling degree days 0  
Year to date cooling degree days 0  
Growing Degree Days 2 (Base 50)    
Moisture  
Dew Point 49 °F    
Average Humidity 81    
Maximum Humidity 100    
Minimum Humidity 60    
Precipitation  
Precipitation 0.00 in 0.10 in 2.60 in (1929)
Month to date precipitation 0.39  
Year to date precipitation 0.39  
Sea Level Pressure  
Sea Level Pressure 29.99 in    
Wind  
Wind Speed 11 mph (SSW)    
Max Wind Speed 23 mph    
Max Gust Speed 32 mph    
Visibility 10 miles    
Events      
T = Trace of Precipitation, MM = Missing Value Source: NWS Daily Summary

Daily Weather History Graph

Daily Weather History Graph

Search for Another Location

Airport or City:

Trip Planner

Search our weather history database for the weather conditions in past years. The results will help you decide how hot, cold, wet, or windy it might be!

Date:

Astronomy

Jan. 04, 2014 Rise Set
Actual Time 7:24 AM CST 5:39 PM CST
Civil Twilight 6:58 AM CST 6:05 PM CST
Nautical Twilight 6:28 AM CST 6:35 PM CST
Astronomical Twilight 5:59 AM CST 7:04 PM CST
Moon 9:47 AM CST (1/4) 9:41 PM CST (1/4)
Length of Visible Light 11h 07m
Length of Day
10h 14m
Waxing Crescent, 15% of the Moon is Illuminated
Jan 4
Waxing Crescent
Jan 7
First Quarter
Jan 15
Full
Jan 23
Last Quarter
Jan 30
New

Hourly Weather History & Observations

Time (CST) Temp. Windchill Dew Point Humidity Pressure Visibility Wind Dir Wind Speed Gust Speed Precip Events Conditions
12:15 AM 39.2 °F 33.6 °F 37.4 °F 93% 30.17 in 10.0 mi South 8.1 mph - N/A   Clear
12:35 AM 39.2 °F 32.5 °F 37.4 °F 93% 30.16 in 10.0 mi South 10.4 mph - N/A   Clear
12:55 AM 39.2 °F 32.5 °F 37.4 °F 93% 30.15 in 10.0 mi South 10.4 mph - N/A   Clear
1:15 AM 39.2 °F 33.0 °F 37.4 °F 93% 30.14 in 10.0 mi South 9.2 mph - N/A   Clear
1:35 AM 39.2 °F 33.6 °F 37.4 °F 93% 30.13 in 10.0 mi South 8.1 mph - N/A   Clear
1:55 AM 39.2 °F 33.0 °F 37.4 °F 93% 30.13 in 10.0 mi SSW 9.2 mph - N/A   Clear
2:15 AM 39.2 °F 33.0 °F 37.4 °F 93% 30.12 in 10.0 mi SSW 9.2 mph - N/A   Clear
2:35 AM 39.2 °F 34.2 °F 37.4 °F 93% 30.12 in 10.0 mi South 6.9 mph - N/A   Clear
2:55 AM 39.2 °F 33.6 °F 37.4 °F 93% 30.12 in 10.0 mi SSW 8.1 mph - N/A   Clear
3:15 AM 39.2 °F 33.0 °F 37.4 °F 93% 30.11 in 10.0 mi SSW 9.2 mph - N/A   Clear
3:35 AM 39.2 °F 32.5 °F 39.2 °F 100% 30.11 in 10.0 mi South 10.4 mph - N/A   Clear
3:55 AM 41.0 °F 36.4 °F 39.2 °F 93% 30.10 in 10.0 mi South 6.9 mph - N/A   Mostly Cloudy
4:15 AM 42.8 °F 38.0 °F 39.2 °F 87% 30.10 in 10.0 mi South 8.1 mph - N/A   Overcast
4:35 AM 42.8 °F 37.5 °F 39.2 °F 87% 30.10 in 10.0 mi SSW 9.2 mph - N/A   Overcast
4:55 AM 42.8 °F 38.0 °F 41.0 °F 93% 30.09 in 10.0 mi SSW 8.1 mph - N/A   Overcast
5:15 AM 44.6 °F 39.2 °F 41.0 °F 87% 30.08 in 10.0 mi SSW 10.4 mph - N/A   Overcast
5:35 AM 44.6 °F 39.7 °F 42.8 °F 93% 30.09 in 10.0 mi SSW 9.2 mph - N/A   Overcast
5:55 AM 44.6 °F 39.7 °F 42.8 °F 93% 30.09 in 10.0 mi SSW 9.2 mph - N/A   Overcast
6:15 AM 44.6 °F 41.4 °F 41.0 °F 87% 30.09 in 10.0 mi South 5.8 mph - N/A   Overcast
6:35 AM 42.8 °F 39.3 °F 41.0 °F 93% 30.08 in 10.0 mi SSW 5.8 mph - N/A   Mostly Cloudy
6:55 AM 42.8 °F 38.0 °F 41.0 °F 93% 30.07 in 10.0 mi SSW 8.1 mph - N/A   Mostly Cloudy
7:15 AM 42.8 °F 38.0 °F 41.0 °F 93% 30.07 in 10.0 mi South 8.1 mph - N/A   Scattered Clouds
7:35 AM 42.8 °F 38.0 °F 41.0 °F 93% 30.07 in 10.0 mi SSW 8.1 mph - N/A   Clear
7:55 AM 42.8 °F 38.6 °F 42.8 °F 100% 30.07 in 10.0 mi SSW 6.9 mph - N/A   Clear
8:15 AM 44.6 °F 39.7 °F 44.6 °F 100% 30.07 in 10.0 mi SSW 9.2 mph - N/A   Clear
8:35 AM 46.4 °F 41.1 °F 44.6 °F 93% 30.07 in 10.0 mi SSW 11.5 mph 16.1 mph N/A   Clear
8:55 AM 48.2 °F - 46.4 °F 93% 30.08 in 10.0 mi SSW 9.2 mph - N/A   Clear
9:15 AM 51.8 °F - 48.2 °F 88% 30.07 in 10.0 mi SSW 10.4 mph - N/A   Clear
9:35 AM 53.6 °F - 48.2 °F 82% 30.07 in 10.0 mi SSW 13.8 mph 18.4 mph N/A   Clear
9:55 AM 55.4 °F - 50.0 °F 82% 30.06 in 10.0 mi SW 11.5 mph - N/A   Clear
10:15 AM 59.0 °F - 51.8 °F 77% 30.06 in 10.0 mi SW 17.3 mph 23.0 mph N/A   Clear
10:35 AM 60.8 °F - 51.8 °F 72% 30.05 in 10.0 mi SW 12.7 mph 21.9 mph N/A   Clear
10:55 AM 62.6 °F - 51.8 °F 68% 30.05 in 10.0 mi WSW 17.3 mph 23.0 mph N/A   Partly Cloudy
11:15 AM 62.6 °F - 51.8 °F 68% 30.03 in 10.0 mi SW 21.9 mph 26.5 mph N/A   Partly Cloudy
11:35 AM 64.4 °F - 51.8 °F 64% 30.01 in 10.0 mi SW 19.6 mph 26.5 mph N/A   Scattered Clouds
11:55 AM 64.4 °F - 51.8 °F 64% 30.00 in 10.0 mi SW 21.9 mph 26.5 mph N/A   Scattered Clouds
12:15 PM 64.4 °F - 51.8 °F 64% 29.98 in 10.0 mi WSW 20.7 mph 27.6 mph N/A   Scattered Clouds
12:35 PM 64.4 °F - 51.8 °F 64% 29.97 in 10.0 mi SW 15.0 mph 32.2 mph N/A   Partly Cloudy
12:55 PM 66.2 °F - 51.8 °F 60% 29.95 in 10.0 mi SW 17.3 mph 26.5 mph N/A   Scattered Clouds
1:15 PM 66.2 °F - 51.8 °F 60% 29.93 in 10.0 mi WSW 23.0 mph 32.2 mph N/A   Partly Cloudy
1:35 PM 66.2 °F - 51.8 °F 60% 29.92 in 10.0 mi SW 20.7 mph 28.8 mph N/A   Clear
1:55 PM 66.2 °F - 51.8 °F 60% 29.91 in 10.0 mi SW 20.7 mph 25.3 mph N/A   Clear
2:15 PM 66.2 °F - 53.6 °F 64% 29.91 in 10.0 mi SW 19.6 mph 25.3 mph N/A   Clear
2:35 PM 66.2 °F - 53.6 °F 64% 29.90 in 10.0 mi SW 17.3 mph - N/A   Clear
2:55 PM 66.2 °F - 51.8 °F 60% 29.89 in 10.0 mi SW 19.6 mph 25.3 mph N/A   Clear
3:15 PM 66.2 °F - 53.6 °F 64% 29.89 in 10.0 mi SW 15.0 mph 25.3 mph N/A   Clear
3:35 PM 66.2 °F - 53.6 °F 64% 29.87 in 10.0 mi SSW 19.6 mph 29.9 mph N/A   Clear
3:55 PM 66.2 °F - 53.6 °F 64% 29.87 in 10.0 mi SW 16.1 mph 23.0 mph N/A   Clear
4:15 PM 66.2 °F - 53.6 °F 64% 29.87 in 10.0 mi SSW 15.0 mph 21.9 mph N/A   Clear
4:35 PM 64.4 °F - 53.6 °F 68% 29.88 in 10.0 mi SSW 12.7 mph 16.1 mph N/A   Clear
4:55 PM 64.4 °F - 53.6 °F 68% 29.87 in 10.0 mi SSW 13.8 mph 18.4 mph N/A   Clear
5:15 PM 64.4 °F - 53.6 °F 68% 29.87 in 10.0 mi SSW 13.8 mph 18.4 mph N/A   Clear
5:35 PM 64.4 °F - 53.6 °F 68% 29.88 in 10.0 mi SSW 12.7 mph - N/A   Partly Cloudy
5:55 PM 62.6 °F - 53.6 °F 72% 29.88 in 10.0 mi SSW 11.5 mph - N/A   Mostly Cloudy
6:15 PM 62.6 °F - 53.6 °F 72% 29.88 in 10.0 mi SSW 9.2 mph 17.3 mph N/A   Scattered Clouds
6:35 PM 60.8 °F - 53.6 °F 77% 29.88 in 10.0 mi SSW 9.2 mph - N/A   Partly Cloudy
6:55 PM 60.8 °F - 55.4 °F 82% 29.88 in 10.0 mi SSW 12.7 mph - N/A   Clear
7:15 PM 60.8 °F - 55.4 °F 82% 29.89 in 10.0 mi SSW 10.4 mph - N/A   Clear
7:35 PM 60.8 °F - 55.4 °F 82% 29.89 in 10.0 mi SSW 10.4 mph - N/A   Clear
7:55 PM 60.8 °F - 55.4 °F 82% 29.88 in 10.0 mi SSW 13.8 mph - N/A   Clear
8:15 PM 60.8 °F - 55.4 °F 82% 29.89 in 10.0 mi SSW 11.5 mph - N/A   Clear
8:35 PM 60.8 °F - 55.4 °F 82% 29.89 in 10.0 mi SSW 9.2 mph - N/A   Clear
8:55 PM 60.8 °F - 55.4 °F 82% 29.89 in 10.0 mi SSW 9.2 mph - N/A   Clear
9:15 PM 59.0 °F - 55.4 °F 88% 29.89 in 10.0 mi SSW 9.2 mph - N/A   Clear
9:35 PM 59.0 °F - 57.2 °F 94% 29.89 in 10.0 mi SSW 9.2 mph - N/A   Scattered Clouds
9:55 PM 60.8 °F - 57.2 °F 88% 29.89 in 10.0 mi SSW 10.4 mph - N/A   Overcast
10:15 PM 60.8 °F - 57.2 °F 88% 29.88 in 10.0 mi SSW 9.2 mph - N/A   Mostly Cloudy
10:35 PM 60.8 °F - 57.2 °F 88% 29.88 in 10.0 mi SSW 12.7 mph - N/A   Mostly Cloudy
10:55 PM 60.8 °F - 57.2 °F 88% 29.87 in 10.0 mi SSW 13.8 mph 17.3 mph N/A   Mostly Cloudy
11:15 PM 60.8 °F - 59.0 °F 94% 29.86 in 10.0 mi SSW 12.7 mph 18.4 mph N/A   Partly Cloudy
11:35 PM 60.8 °F - 57.2 °F 88% 29.86 in 10.0 mi SSW 11.5 mph - N/A   Clear
11:55 PM 59.0 °F - 57.2 °F 94% 29.86 in 10.0 mi SSW 12.7 mph - N/A   Clear